{"data":{"norad_id":34661,"epoch":"2026-09-19T12:16:23.833344Z","epoch_age_seconds":107431,"freshness":"FRESH","line1":"1 34661U 09014A   26262.51138696  .00000000  00000+0  00000+0 0  9999","line2":"2 34661  54.4706 206.8757 0146367  61.6507 104.5082  2.00569996128170","mean_motion":2.00569996,"eccentricity":0.0146367,"inclination_deg":54.4706,"raan_deg":206.8757,"arg_perigee_deg":61.6507,"mean_anomaly_deg":104.5082,"bstar":0,"rev_number":12817,"period_min":717.95384589827,"perigee_km":19792.898927022,"apogee_km":20570.394093634,"semimajor_km":26559.783510328,"source":"CELESTRAK","updated_at":"2026-09-20T09:00:13.704049Z"}}